Location: Unspecified
(40.7000°N, 14.5000°E)
Time: 17:03:00
(UTC+02:00)

ISS - Visible Passes

Search period start: 17 May 2026 00:00
Search period end: 27 May 2026 00:00
Orbit: 414 x 424 km, 51.6° (Epoch: 17 May)

Date Brightness Start Highest point End Pass type
(mag) Time Alt. Az. Time Alt. Az. Time Alt. Az.
17 May -0.6 00:14:34 10° NW 00:15:06 14° NW 00:15:06 14° NW visible
17 May -0.9 21:50:42 10° NNW 21:52:25 13° N 21:54:09 10° NE visible
17 May -1.5 23:27:01 10° NW 23:29:02 25° N 23:29:02 25° N visible
18 May -0.9 21:02:53 10° NNW 21:04:28 13° N 21:06:03 10° NNE visible
18 May -1.7 22:39:29 10° NNW 22:42:12 22° NNE 22:42:57 21° NE visible
19 May -1.3 21:51:57 10° NNW 21:54:19 18° NNE 21:56:41 10° ENE visible
19 May -1.6 23:28:13 10° NW 23:29:49 26° NW 23:29:49 26° NW visible
20 May -1.1 21:04:22 10° NNW 21:06:23 15° NNE 21:08:24 10° NE visible
20 May -2.9 22:40:36 10° NW 22:43:46 44° NNE 22:43:46 44° NNE visible
21 May -2.2 21:53:01 10° NW 21:56:02 30° NNE 21:57:45 19° ENE visible
21 May -1.2 23:29:44 10° WNW 23:30:40 17° WNW 23:30:40 17° WNW visible
22 May -1.8 21:05:28 10° NNW 21:08:10 22° NNE 21:10:51 10° ENE visible
22 May -3.3 22:41:53 10° WNW 22:44:40 54° W 22:44:40 54° W visible
23 May -3.7 21:54:09 10° NW 21:57:29 72° NE 21:58:42 36° ESE visible
24 May -3.0 21:06:29 10° NW 21:09:42 43° NNE 21:12:45 11° ESE visible
24 May -1.8 22:43:41 10° W 22:45:41 20° WSW 22:45:41 20° WSW visible
25 May -2.8 21:55:35 10° WNW 21:58:41 37° SW 21:59:47 28° S visible
26 May -3.6 21:07:41 10° WNW 21:11:00 67° SW 21:13:56 13° SE visible
